Torna al catalogo

SORAYA

AttivoScienzaLEO
NORAD 58817·PAYLOAD·🇮🇷 Iran

Lanciato Jan 20, 2024 da Shahroud Space Center

Loading…

Prossimi Passaggi (prossime 24 ore)

TLE

AggiornatoSource: Space-Track

Epoca: Sep 14, 2026, 14:29 UTC

1 58817U 24015A   26257.60387296  .00000048  00000-0  46541-4 0  9990
2 58817  64.5152 181.1255 0010799 297.3167  62.6818 14.42739034139672

Traccia SORAYA in tempo reale con AllMySat

Download on the App Store